This demonstration page uses our WeatherBlox Daily Observations layout. Learn more.

36.17497, -115.13722

Hourly Observations for June 28, 2016

Temp ( °F °C ) Dew Point ( °F °C ) Humidity (%) Winds ( mph kmh ) Pressure ( in mb ) Visibility ( mi km ) Precip ( " mm )
12:53 am 00:53 Clear 98 36.7 45 7.2 16 16 SSW 13 20 29.85 1011 10 16.0934 0 0
1:53 am 01:53 Clear 96 35.6 45 7.2 17 17 S 12 19 29.86 1011 10 16.0934 0 0
2:53 am 02:53 Clear 96 35.6 44 6.7 17 17 SW 10 17 29.87 1012 10 16.0934 0 0
3:53 am 03:53 Clear 94 34.4 45 7.2 18 18 SSE 5 7 29.88 1012 10 16.0934 0 0
4:53 am 04:53 Clear 93 33.9 44 6.7 18 18 SSE 7 11 29.9 1013 10 16.0934 0 0
5:53 am 05:53 Mostly Sunny 94 34.4 45 7.2 18 18 SW 9 15 29.92 1013 10 16.0934 0 0
6:53 am 06:53 Sunny 95 35 43 6.1 17 17 ESE 15 24 29.96 1015 10 16.0934 0 0
7:53 am 07:53 Partly Cloudy 96 35.6 43 6.1 16 16 E 18 30 29.97 1015 10 16.0934 0 0
8:53 am 08:53 Sunny 94 34.4 46 7.8 19 19 NE 12 19 29.96 1015 10 16.0934 0 0
9:53 am 09:53 Sunny 98 36.7 44 6.7 16 16 NE 7 11 29.96 1015 10 16.0934 0 0
10:53 am 10:53 Sunny 100 37.8 44 6.7 15 15 VRB 3 6 29.95 1014 10 16.0934 0 0
11:53 am 11:53 Sunny 104 40 44 6.7 13 13 NW 15 24 29.92 1013 10 16.0934 0 0
12:53 pm 12:53 Sunny 104 40 44 6.7 13 13 W 12 19 29.91 1013 10 16.0934 0 0
1:53 pm 13:53 Sunny 106 41.1 44 6.7 12 12 VRB 6 9 29.88 1012 10 16.0934 0 0
2:53 pm 14:53 Sunny 104 40 44 6.7 13 13 ENE 6 9 29.85 1011 10 16.0934 0 0
3:53 pm 15:53 Sunny 107 41.7 44 6.7 12 12 NNW 8 13 29.82 1010 10 16.0934 0 0
4:53 pm 16:53 Sunny 106 41.1 48 8.9 14 14 SE 17 28 29.81 1010 10 16.0934 0 0
5:53 pm 17:53 Sunny 102 38.9 47 8.3 15 15 S 18 30 29.84 1010 10 16.0934 0 0
6:53 pm 18:53 Partly Cloudy 95 35 48 8.9 20 20 S 16 26 29.85 1011 10 16.0934 0 0.0254
7:53 pm 19:53 Sunny 94 34.4 51 10.6 23 23 NW 13 20 29.87 1012 10 16.0934 0 0
8:53 pm 20:53 Clear 93 33.9 51 10.6 24 24 WNW 12 19 29.87 1011 10 16.0934 0 0
9:53 pm 21:53 Clear 93 33.9 51 10.6 24 24 W 6 9 29.87 1012 10 16.0934 0 0
10:53 pm 22:53 Clear 91 32.8 50 10 25 25 Calm 29.87 1011 10 16.0934 0 0
11:53 pm 23:53 Clear 89 31.7 52 11.1 28 28 WNW 7 11 29.86 1011 10 16.0934 0 0

Powered by AerisWeather